(102015) = 1999 RK87 = 1999 VB155 = 1999 TY50 = 2002 LZ21

Discovered at Socorro on 1999-09-07 by LINEAR.

Orbit

Orbit type: Main Belt

Note: WebGL enabled browser required.

epoch2024-03-31.0
epoch JD2460400.5
perihelion date2023-02-05.96698
perihelion JD2459981.46698
argument of perihelion (°)338.76108
ascending node (°)336.67666
inclination (°)0.62073
eccentricity0.2248298
perihelion distance (AU)1.7442660
Tisserand w.r.t. Jupiter3.6
ΔV w.r.t. Earth (km/sec)8.1
semimajor axis (AU)2.2501716
mean anomaly (°)122.35695
mean daily motion (°/day)0.29199830
aphelion distance (AU)2.756
period (years)3.38
P-vector [x]0.71249677
P-vector [y]-0.64220341
P-vector [z]-0.28270679
Q-vector [x]0.70166228
Q-vector [y]0.64963253
Q-vector [z]0.29265616
absolute magnitude17.1
phase slope0.15
uncertainty0
referenceMPEC 2024-E23
observations used585
oppositions17
arc length (days)8946
first opposition used1999
last opposition used2024
residual rms (arc-secs)0.69
perturbers coarse indicatorM-v
perturbers precise indicator003Ek
first observation date used1999-09-04.0
last observation date used2024-03-02.0
computer nameMPCLINUX
JD of orbit computation2456670.731819
perihelion JD uncertainty (days)4.2384E-05
argument of perihelion uncertainty (°)4.1058E-04
ascending node uncertainty (°)4.1040E-04
inclination uncertainty (°)5.1662E-06
eccentricity uncertainty 4.7473E-08
perihelion distance uncertainty (AU)1.0958E-07
Minimum Orbit Intersection Distances (in AU)
for orbit epoch: 2460400.5, reference: E2024-E23
Mercury1.3179
Venus1.01742
Earth0.73039
Mars0.35268
Jupiter2.52594
Saturn6.37315
Uranus15.7293
Neptune27.4313

Observations

596 total observations over interval: 1999 09 04.34248 – 2024 03 02.296326
These data are available for download (format description).

Date (UT) J2000 RA J2000 Dec Magn Location Ref
1999 09 04.34248 00 10 58.10 +01 32 33.4 18.5 R 699 – Lowell Observatory-LONEOS MPS 59617
1999 09 04.36802 00 10 56.97 +01 32 26.8   699 – Lowell Observatory-LONEOS MPS 59617
1999 09 04.39356 00 10 55.84 +01 32 21.3   699 – Lowell Observatory-LONEOS MPS 59617
1999 09 07.39876 00 08 45.18 +01 20 24.6 18.5   704 – Lincoln Laboratory ETS, New Mexico MPS 6270
1999 09 07.41014 00 08 44.61 +01 20 21.7 19.5   704 – Lincoln Laboratory ETS, New Mexico MPS 6270
1999 09 07.42154 00 08 44.03 +01 20 18.2 19.1   704 – Lincoln Laboratory ETS, New Mexico MPS 6270
1999 09 07.43289 00 08 43.46 +01 20 15.2 19.1   704 – Lincoln Laboratory ETS, New Mexico MPS 6270
1999 09 07.44425 00 08 42.93 +01 20 12.7 19.7   704 – Lincoln Laboratory ETS, New Mexico MPS 6270
1999 09 14.25846 00 03 08.82 +00 48 39.9 18.6   704 – Lincoln Laboratory ETS, New Mexico MPS 6270
1999 09 14.27112 00 03 08.06 +00 48 35.6 18.9   704 – Lincoln Laboratory ETS, New Mexico MPS 6270
1999 09 14.28383 00 03 07.42 +00 48 32.3 18.7   704 – Lincoln Laboratory ETS, New Mexico MPS 6270
1999 09 14.29664 00 03 06.63 +00 48 28.5 18.7   704 – Lincoln Laboratory ETS, New Mexico MPS 6270
1999 09 14.30949 00 03 05.94 +00 48 23.8 18.4   704 – Lincoln Laboratory ETS, New Mexico MPS 6270
1999 10 01.25144 23 48 28.58 -00 37 08.8 18.7 R 699 – Lowell Observatory-LONEOS MPS 13624
1999 10 01.28200 23 48 27.09 -00 37 16.6   699 – Lowell Observatory-LONEOS MPS 13624
1999 10 01.31257 23 48 25.53 -00 37 24.5   699 – Lowell Observatory-LONEOS MPS 13624
1999 10 04.35924 23 46 08.05 -00 50 59.4 18.1 V 691 – Steward Observatory, Kitt Peak-Spacewatch MPS 13707
1999 10 04.36912 23 46 07.60 -00 51 01.7 18.2 V 691 – Steward Observatory, Kitt Peak-Spacewatch MPS 13707
1999 10 04.37642 23 46 07.27 -00 51 03.6 18.1 V 691 – Steward Observatory, Kitt Peak-Spacewatch MPS 13707
1999 10 07.25701 23 44 09.27 -01 02 46.8 18.6   704 – Lincoln Laboratory ETS, New Mexico MPS 13624
1999 10 07.26863 23 44 08.74 -01 02 49.9 19.3   704 – Lincoln Laboratory ETS, New Mexico MPS 13624
1999 10 07.28043 23 44 08.21 -01 02 53.0 19.2   704 – Lincoln Laboratory ETS, New Mexico MPS 13624
1999 10 07.29208 23 44 07.76 -01 02 54.2 19.1   704 – Lincoln Laboratory ETS, New Mexico MPS 13624
1999 10 07.30371 23 44 07.31 -01 02 57.3 19.0   704 – Lincoln Laboratory ETS, New Mexico MPS 13624
1999 10 08.11091 23 43 37.16 -01 06 01.6 19.7   704 – Lincoln Laboratory ETS, New Mexico MPS 13624
1999 10 08.12659 23 43 36.40 -01 06 04.0 19.3   704 – Lincoln Laboratory ETS, New Mexico MPS 13624
1999 10 08.14242 23 43 35.68 -01 06 08.3 19.6   704 – Lincoln Laboratory ETS, New Mexico MPS 13624
1999 10 09.16495 23 42 58.08 -01 09 50.4 19.2   704 – Lincoln Laboratory ETS, New Mexico MPS 13624
1999 10 09.18105 23 42 57.39 -01 09 54.7 20.0   704 – Lincoln Laboratory ETS, New Mexico MPS 13624
1999 10 09.19650 23 42 56.88 -01 09 58.0 19.4   704 – Lincoln Laboratory ETS, New Mexico MPS 13624
1999 10 09.21194 23 42 56.32 -01 10 01.3 19.5   704 – Lincoln Laboratory ETS, New Mexico MPS 13624
1999 10 09.22738 23 42 55.73 -01 10 05.0 19.8   704 – Lincoln Laboratory ETS, New Mexico MPS 13624
1999 10 10.19122 23 42 22.18 -01 13 24.0 18.2 V 691 – Steward Observatory, Kitt Peak-Spacewatch MPS 13707
1999 10 10.21272 23 42 21.36 -01 13 28.4 18.3 V 691 – Steward Observatory, Kitt Peak-Spacewatch MPS 13707
1999 10 10.23457 23 42 20.55 -01 13 32.9 18.3 V 691 – Steward Observatory, Kitt Peak-Spacewatch MPS 13707
1999 10 13.32180 23 40 43.51 -01 23 06.6 18.0 V 691 – Steward Observatory, Kitt Peak-Spacewatch MPS 13624
1999 10 13.35124 23 40 42.61 -01 23 11.6 18.3 V 691 – Steward Observatory, Kitt Peak-Spacewatch MPS 13624
1999 10 13.37920 23 40 41.82 -01 23 15.7 18.2 V 691 – Steward Observatory, Kitt Peak-Spacewatch MPS 13624
1999 10 14.15009 23 40 21.09 -01 25 22.5 19.3 V 691 – Steward Observatory, Kitt Peak-Spacewatch MPS 13624
1999 10 14.18022 23 40 20.19 -01 25 27.4 19.2 V 691 – Steward Observatory, Kitt Peak-Spacewatch MPS 13624
1999 10 14.20908 23 40 19.32 -01 25 32.1 19.2 V 691 – Steward Observatory, Kitt Peak-Spacewatch MPS 13624
1999 10 14.23571 23 40 18.52 -01 25 36.6 19.1 V 691 – Steward Observatory, Kitt Peak-Spacewatch MPS 1104430
1999 10 14.26254 23 40 17.75 -01 25 41.1 19.0 V 691 – Steward Observatory, Kitt Peak-Spacewatch MPS 1104430
1999 10 14.29850 23 40 16.64 -01 25 46.5 19.2 V 691 – Steward Observatory, Kitt Peak-Spacewatch MPS 1104430
1999 10 15.17527 23 39 54.33 -01 28 00.9 19.3   704 – Lincoln Laboratory ETS, New Mexico MPS 13624
1999 10 15.19093 23 39 53.94 -01 28 03.2 19.9   704 – Lincoln Laboratory ETS, New Mexico MPS 13624
1999 10 15.20651 23 39 53.39 -01 28 05.0 20.3   704 – Lincoln Laboratory ETS, New Mexico MPS 13624
1999 10 15.22208 23 39 52.98 -01 28 07.3 19.5   704 – Lincoln Laboratory ETS, New Mexico MPS 13624
1999 10 15.23785 23 39 52.53 -01 28 10.9 19.7   704 – Lincoln Laboratory ETS, New Mexico MPS 13624
1999 11 05.07800 23 38 26.58 -01 35 08.4 20.0 V 691 – Steward Observatory, Kitt Peak-Spacewatch MPS 13624
1999 11 05.09917 23 38 26.87 -01 35 06.0 19.9 V 691 – Steward Observatory, Kitt Peak-Spacewatch MPS 13624
1999 11 05.12045 23 38 27.15 -01 35 03.8 20.0 V 691 – Steward Observatory, Kitt Peak-Spacewatch MPS 13624
1999 11 13.15256 23 41 38.06 -01 14 34.5 20.3 V 691 – Steward Observatory, Kitt Peak-Spacewatch MPS 9999
1999 11 13.17498 23 41 38.69 -01 14 30.2 20.3 V 691 – Steward Observatory, Kitt Peak-Spacewatch MPS 9999
1999 11 13.19624 23 41 39.28 -01 14 26.0 19.9 V 691 – Steward Observatory, Kitt Peak-Spacewatch MPS 9999
1999 11 17.07291 23 43 52.20 -01 00 17.3 20.3 V 691 – Steward Observatory, Kitt Peak-Spacewatch MPS 9999
1999 11 17.09541 23 43 52.97 -01 00 12.3 20.8 V 691 – Steward Observatory, Kitt Peak-Spacewatch MPS 9999
1999 11 17.11719 23 43 53.75 -01 00 06.9 20.5 V 691 – Steward Observatory, Kitt Peak-Spacewatch MPS 9999
2001 01 19.36361 09 04 15.88 +17 13 27.1 21.4 V 691 – Steward Observatory, Kitt Peak-Spacewatch MPS 56905
2001 01 19.38555 09 04 14.51 +17 13 32.9 21.2 V 691 – Steward Observatory, Kitt Peak-Spacewatch MPS 56905
2001 01 19.40768 09 04 13.12 +17 13 38.3 21.3 V 691 – Steward Observatory, Kitt Peak-Spacewatch MPS 56905
2002 05 09.33441 16 36 09.25 -23 15 01.7 18.8   704 – Lincoln Laboratory ETS, New Mexico MPS 57874
2002 05 09.34673 16 36 08.59 -23 15 00.5 19.3   704 – Lincoln Laboratory ETS, New Mexico MPS 57874
2002 05 09.35909 16 36 08.14 -23 15 00.8 19.3   704 – Lincoln Laboratory ETS, New Mexico MPS 57874
2002 05 09.37164 16 36 07.53 -23 14 58.9 18.9   704 – Lincoln Laboratory ETS, New Mexico MPS 57874
2002 05 17.33724 16 29 35.12 -23 04 35.1 19.4   704 – Lincoln Laboratory ETS, New Mexico MPS 57874
2002 05 17.35239 16 29 34.30 -23 04 33.8 19.3   704 – Lincoln Laboratory ETS, New Mexico MPS 57874
2002 05 17.36754 16 29 33.47 -23 04 32.3 19.3   704 – Lincoln Laboratory ETS, New Mexico MPS 57874
2002 06 08.24507 16 06 43.28 -22 12 11.6 19.5   704 – Lincoln Laboratory ETS, New Mexico MPS 57874
2002 06 08.25886 16 06 42.34 -22 12 08.2 19.2   704 – Lincoln Laboratory ETS, New Mexico MPS 57874
2002 06 08.27267 16 06 41.50 -22 12 06.0 19.4   704 – Lincoln Laboratory ETS, New Mexico MPS 57874
2002 06 08.28647 16 06 40.59 -22 12 03.3 19.2   704 – Lincoln Laboratory ETS, New Mexico MPS 57874
2002 06 08.30028 16 06 39.70 -22 12 00.5 19.4   704 – Lincoln Laboratory ETS, New Mexico MPS 57874
2002 06 09.23997 16 05 42.58 -22 09 20.7 18.8   704 – Lincoln Laboratory ETS, New Mexico MPS 57874
2002 06 09.25428 16 05 41.63 -22 09 17.3 19.7   704 – Lincoln Laboratory ETS, New Mexico MPS 57874
2002 06 09.26792 16 05 40.71 -22 09 15.4 19.1   704 – Lincoln Laboratory ETS, New Mexico MPS 57874
2002 06 09.28143 16 05 39.83 -22 09 12.9 19.5   704 – Lincoln Laboratory ETS, New Mexico MPS 57874
2002 06 09.29472 16 05 38.98 -22 09 10.2 19.4   704 – Lincoln Laboratory ETS, New Mexico MPS 57874
2005 03 17.32717 12 43 20.41 -05 11 50.4 20.6 V 691 – Steward Observatory, Kitt Peak-Spacewatch MPS 128865
2005 03 17.35291 12 43 18.98 -05 11 42.4 20.5 V 691 – Steward Observatory, Kitt Peak-Spacewatch MPS 128865
2005 03 17.37817 12 43 17.56 -05 11 34.3 21.0 V 691 – Steward Observatory, Kitt Peak-Spacewatch MPS 128865
